BEESAT-3 (39135 NORAD) Tracking and Keplerian Element Data

This shows tracking and keplerian element data for the satellite.

Feedback or suggestion? Click here.




ElementValue
Catalog39135
NameBEESAT-3
Epoch Orbit38342
Epoch Day91.77183489
Epoch Year2020
RAAN192.2747
Inclination64.8684
Eccentricity0.0042967
Argument of Perigee259.532
Mean Anonmoly100.0963
Mean Motion15.18036236
Decay Rate9.89E-06
L11 39135U 13015F 20091.77183489 .00000989 00000-0 57281-4 0 9993
L22 39135 64.8684 192.2747 0042967 259.5320 100.0963 15.18036236383429

Live tracking and technical data element details for BEESAT-3 (NORAD 39135). BEESAT-3 can be tracked NOW for your location showing map with azimuth and elevation plus other details from your city location.

Track the satellite on the map from your city or location and see movement details for azimuth, elevation, latitude, longitude, range, height, and movement on the map or in text.







IsCatalogInMostPopularTable: catalog: 39135, numindb: 367
Update: records affected: 1



GetName: 39135 BEESAT-3

Hit Count: updated at: Fri, 03 Apr 2020 07:15:20 GMT